"Time","Temp","Dewpoint","Humidity","Pressure","Direction","Speed","Gust","Precip","PrecipRate"
"00:04:56","43.3","32.2","64.8","30.25","312","2.9","9.2","0.00","0.00"
"00:09:58","43.3","32.2","64.9","30.25","263","2.6","7","0.00","0.00"
"00:14:59","43.2","32.3","65.2","30.25","271","2.4","5","0.00","0.00"
"00:19:49","43.1","32.4","65.7","30.25","326","2.3","6","0.00","0.00"
"00:24:56","43","32.4","66","30.25","256","2.7","7","0.00","0.00"
"00:29:58","42.7","32.3","66.4","30.26","273","1.3","5","0.00","0.00"
"00:34:57","42.5","32.3","67","30.26","331","1.5","4","0.00","0.00"
"00:39:56","42.4","32.4","67.6","30.26","329","0.6","3.5","0.00","0.00"
"00:44:58","42.3","32.5","68.1","30.27","329","0.3","2","0.00","0.00"
"00:49:57","42.2","32.4","68","30.27","329","0.3","2.3","0.00","0.00"
"00:54:56","42.1","32.7","69.1","30.27","329","0.2","1.2","0.00","0.00"
"00:59:58","42","32.7","69.5","30.28","329","0","1.2","0.00","0.00"
"01:04:59","41.8","32.7","69.8","30.28","329","0","0","0.00","0.00"
"01:09:57","41.6","32.5","70","30.28","329","0.4","3.5","0.00","0.00"
"01:14:57","41.4","32.5","70.6","30.28","329","0.4","2.3","0.00","0.00"
"01:19:59","41.2","32.8","71.8","30.28","308","0.4","3.5","0.00","0.00"
"01:24:57","41","32.9","72.7","30.28","331","1.6","4","0.00","0.00"
"01:29:56","41","32.7","72","30.28","306","1.7","6","0.00","0.00"
"01:34:58","41.1","32.6","71.4","30.28","310","2.2","5","0.00","0.00"
"01:39:57","41.1","32.4","71","30.28","329","1.4","4","0.00","0.00"
"01:44:56","41","32.5","71.6","30.28","283","2.1","7","0.00","0.00"
"01:49:58","41","32.6","71.8","30.28","266","1.1","4.6","0.00","0.00"
"01:54:57","40.9","32.6","72","30.28","266","1","3.5","0.00","0.00"
"01:59:56","40.8","32.5","72","30.29","266","0.5","2.3","0.00","0.00"
"02:04:57","40.6","32.3","72","30.29","266","0.4","2.3","0.00","0.00"
"02:09:59","40.3","32.3","73","30.29","266","1.5","3.5","0.00","0.00"
"02:14:59","40.1","32.2","73.3","30.29","266","1.3","3.5","0.00","0.00"
"02:19:57","39.8","32.2","74","30.29","266","1.8","3.5","0.00","0.00"
"02:24:56","39.7","32.1","74","30.29","294","2.3","5","0.00","0.00"
"02:29:58","39.7","32.2","74.2","30.30","343","2.2","5","0.00","0.00"
"02:34:57","39.8","32.2","74.2","30.30","341","0.6","3.5","0.00","0.00"
"02:39:56","39.7","32.1","74","30.30","318","0.4","3","0.00","0.00"
"02:44:59","39.6","32","74","30.30","270","1","3.5","0.00","0.00"
"02:49:58","39.5","32","74.5","30.30","245","0.8","3","0.00","0.00"
"02:54:57","39.5","32.3","75.3","30.30","235","1.2","2.3","0.00","0.00"
"02:59:59","39.3","32.3","75.8","30.31","200","1","2.3","0.00","0.00"
"03:04:58","39","32.1","76","30.31","200","0.2","1.2","0.00","0.00"
"03:09:59","38.9","32","76","30.31","200","0","0","0.00","0.00"
"03:14:59","38.7","31.8","76","30.32","200","0","0","0.00","0.00"
"03:19:58","38.6","31.7","76","30.32","200","0","0","0.00","0.00"
"03:24:56","38.4","31.7","76.8","30.32","200","0","0","0.00","0.00"
"03:29:58","38.2","31.6","77","30.33","200","0","0","0.00","0.00"
"03:34:57","37.9","31.4","77","30.33","200","0","0","0.00","0.00"
"03:39:56","37.6","31.4","78","30.33","200","0","0","0.00","0.00"
"03:44:59","37.3","31.3","78.7","30.33","200","0","0","0.00","0.00"
"03:49:57","36.9","31","79","30.33","200","0","0","0.00","0.00"
"03:54:56","36.6","30.9","79.8","30.33","200","0","0","0.00","0.00"
"03:59:58","36.3","30.7","80","30.34","200","0","0","0.00","0.00"
"04:04:56","35.9","30.5","80.7","30.34","200","0","0","0.00","0.00"
"04:09:57","35.5","30.3","81.3","30.34","200","0","0","0.00","0.00"
"04:14:58","35.1","30.2","82","30.35","200","0","0","0.00","0.00"
"04:19:56","34.8","30","82.3","30.35","200","0","0","0.00","0.00"
"04:24:59","34.5","29.9","83.1","30.35","200","0","0","0.00","0.00"
"04:29:57","34.3","30","84","30.35","200","0","0","0.00","0.00"
"04:34:56","34.1","30","84.8","30.35","200","0","0","0.00","0.00"
"04:39:59","33.9","29.8","84.7","30.35","200","0","0","0.00","0.00"
"04:44:57","33.8","29.8","85","30.36","200","0","0","0.00","0.00"
"04:49:59","33.6","29.8","85.7","30.36","200","0","0","0.00","0.00"
"04:54:58","33.5","29.8","86","30.36","215","0","2","0.00","0.00"
"04:59:56","33.6","30","86.4","30.37","215","1.9","3.5","0.00","0.00"
"05:04:57","34.2","30.3","85.4","30.37","215","1","3.5","0.00","0.00"
"05:09:59","34.4","30.4","85","30.37","215","1","3.5","0.00","0.00"
"05:14:58","34.6","30.4","84.4","30.37","215","0.1","1.2","0.00","0.00"
"05:19:57","34.4","30.1","84","30.37","215","0","1.2","0.00","0.00"
"05:24:56","34.2","30","84.5","30.37","215","0","0","0.00","0.00"
"05:29:58","34","30","85","30.38","215","0","0","0.00","0.00"
"05:34:56","33.8","29.9","85","30.38","215","0","0","0.00","0.00"
"05:39:56","33.6","29.6","85","30.38","215","0","0","0.00","0.00"
"05:44:35","33.3","29.3","85","30.38","215","0","1.2","0.00","0.00"
"05:49:57","33","29.2","85.6","30.38","215","0","1.2","0.00","0.00"
"05:54:56","32.8","29.1","86","30.38","215","0","0","0.00","0.00"
"05:59:58","32.6","28.9","86","30.39","215","0","0","0.00","0.00"
"06:04:44","32.4","28.7","86","30.39","215","0","0","0.00","0.00"
"06:09:59","32.2","28.6","86.4","30.39","215","0.1","1","0.00","0.00"
"06:14:58","32.1","28.7","87.4","30.39","215","0.5","2.3","0.00","0.00"
"06:19:56","32","28.8","88","30.39","215","0","0","0.00","0.00"
"06:24:59","31.8","28.5","87.4","30.39","215","0","0","0.00","0.00"
"06:29:58","31.6","28.4","87.7","30.40","215","0.2","2.3","0.00","0.00"
"06:34:56","31.4","28.3","88","30.40","215","0","0","0.00","0.00"
"06:39:56","31.4","28.5","88.8","30.40","215","0","1","0.00","0.00"
"06:44:59","31.4","28.5","89","30.41","215","0.2","1.2","0.00","0.00"
"06:49:58","31.4","28.5","89","30.41","215","0","1.2","0.00","0.00"
"06:54:56","31.3","28.3","88.5","30.41","215","0","1.2","0.00","0.00"
"06:59:59","31.3","28.4","89","30.41","215","0","1.2","0.00","0.00"
"07:04:52","31.3","28.6","89.5","30.41","215","0","0","0.00","0.00"
"07:09:58","31.8","29.3","90.2","30.41","215","1.3","3.5","0.00","0.00"
"07:14:57","32.6","30","89.9","30.42","255","1.9","3.5","0.00","0.00"
"07:19:59","33.3","30.4","89","30.42","262","0.4","3","0.00","0.00"
"07:24:57","33.8","30.8","88.6","30.42","262","0.3","2.3","0.00","0.00"
"07:29:59","34.3","31.1","88","30.42","262","0.1","1.2","0.00","0.00"
"07:34:37","35","31.8","88","30.42","262","0","0","0.00","0.00"
"07:39:57","35.7","32.2","87","30.42","262","0.5","3","0.00","0.00"
"07:44:56","36.6","32.6","85.5","30.42","262","2","3.5","0.00","0.00"
"07:49:58","37.4","33","83.9","30.42","262","2","4","0.00","0.00"
"07:54:56","38.4","33","80.8","30.42","262","1.6","3.5","0.00","0.00"
"07:59:55","39.4","32.9","77.5","30.42","299","1.1","4","0.00","0.00"
"08:04:52","40.4","33","74.8","30.42","307","1.2","4","0.00","0.00"
"08:09:57","41.1","33","72.7","30.42","296","1.2","4","0.00","0.00"
"08:14:56","42","33","70.3","30.43","314","2","6","0.00","0.00"
"08:19:58","42.8","32.5","66.9","30.43","293","2.3","5","0.00","0.00"
"08:24:56","43.5","32.5","65","30.43","308","2.6","5","0.00","0.00"
"08:29:50","44.1","32.9","64.7","30.43","315","3.2","6","0.00","0.00"
"08:34:56","44.5","32.9","63.4","30.43","311","2","4.6","0.00","0.00"
"08:39:59","45.2","33.3","63","30.43","209","2","5","0.00","0.00"
"08:44:57","45.5","32.6","60.5","30.43","306","2.6","6","0.00","0.00"
"08:49:59","45.8","33.3","61.3","30.43","260","2","5.8","0.00","0.00"
"08:54:57","46.3","33.1","59.9","30.43","276","2.8","7","0.00","0.00"
"08:59:59","46.5","32.2","57.5","30.43","318","4.3","10.4","0.00","0.00"
"09:04:56","46.5","32","56.7","30.43","320","5","12","0.00","0.00"
"09:09:58","46.6","32.3","57.3","30.43","312","4.5","13","0.00","0.00"
"09:14:57","46.9","32.4","56.7","30.43","280","4.8","14","0.00","0.00"
"09:19:59","46.9","31.9","55.6","30.43","314","4.4","13.8","0.00","0.00"
"09:24:57","47.2","32.6","56.5","30.43","261","2.8","10.4","0.00","0.00"
"09:29:59","47.6","33","56.8","30.43","258","1.9","5.8","0.00","0.00"
"09:34:57","48.2","33.3","56.2","30.43","244","2.6","6","0.00","0.00"
"09:39:56","48.5","32.7","54.2","30.43","283","3.2","11","0.00","0.00"
"09:44:58","48.3","31.1","51.2","30.44","330","6.6","11.5","0.00","0.00"
"09:49:56","48.2","31.6","52.4","30.44","316","4.6","11.5","0.00","0.00"
"09:54:58","48.5","31.1","50.9","30.44","315","4.5","11.5","0.00","0.00"
"09:59:56","48.5","31.1","50.9","30.44","319","4","8.1","0.00","0.00"
"10:04:57","48.9","31.6","51.2","30.44","300","3.9","11.5","0.00","0.00"
"10:09:59","49.1","31.2","49.9","30.44","317","4.4","7","0.00","0.00"
"10:14:57","49.1","31.1","49.8","30.45","315","3.9","9.2","0.00","0.00"
"10:19:59","49.4","31.6","50.3","30.45","309","3.9","8.1","0.00","0.00"
"10:24:57","49.9","32.1","50.2","30.45","276","3.4","9.2","0.00","0.00"
"10:29:59","49.9","31.8","49.5","30.45","245","3.4","8.1","0.00","0.00"
"10:34:57","50","33","51.8","30.45","246","3.4","7","0.00","0.00"
"10:39:56","50.2","32.1","49.5","30.45","326","4.2","11.5","0.00","0.00"
"10:44:58","50.4","33","51.1","30.45","331","2","8.1","0.00","0.00"
"10:49:57","50.7","33","50.6","30.45","301","2.3","6","0.00","0.00"
"10:54:58","51.1","33.8","51.4","30.45","359","3.8","11.5","0.00","0.00"
"10:59:56","51.4","34.2","51.7","30.45","0","3.2","11.5","0.00","0.00"
"11:04:53","51.6","33.9","50.7","30.45","309","3.7","9","0.00","0.00"
"11:09:58","51.5","32.7","48.6","30.45","234","3.5","10.4","0.00","0.00"
"11:14:57","51.5","33.8","50.8","30.45","216","2.8","9","0.00","0.00"
"11:19:59","52.1","34.1","50.1","30.45","254","4.1","9.2","0.00","0.00"
"11:24:57","52.3","33","47.7","30.45","296","3.5","7","0.00","0.00"
"11:29:59","52.4","34.4","50.3","30.45","235","3.9","7","0.00","0.00"
"11:34:57","52.5","33.5","48.2","30.45","276","4.1","9.2","0.00","0.00"
"11:39:59","52.6","34.2","49.4","30.45","226","4.5","9.2","0.00","0.00"
"11:44:58","52.8","34.5","49.9","30.45","262","4.8","12","0.00","0.00"
"11:49:56","52.8","33.4","47.7","30.45","262","3.9","6.9","0.00","0.00"
"11:54:57","53.2","34.5","49","30.45","246","3.7","7","0.00","0.00"
"11:59:59","53.4","34.7","49.2","30.45","230","3.8","10","0.00","0.00"
"12:04:56","53.4","33","45.7","30.45","309","3.9","10.4","0.00","0.00"
"12:09:58","53.1","33.1","46.5","30.45","293","4.7","11.5","0.00","0.00"
"12:14:57","53.2","34.3","48.5","30.45","301","3.2","10.4","0.00","0.00"
"12:19:59","53.6","33.8","47","30.45","286","3.7","13","0.00","0.00"
"12:24:57","53.5","32.8","45.3","30.45","301","3.2","9.2","0.00","0.00"
"12:29:59","54.1","33.4","45.3","30.45","281","3","9.2","0.00","0.00"
"12:34:53","54.3","32.9","44.2","30.45","276","2.5","7","0.00","0.00"
"12:39:59","54.6","35.1","47.6","30.45","342","3.2","7","0.00","0.00"
"12:44:58","54.9","32.3","42.2","30.45","330","4.8","11.5","0.00","0.00"
"12:49:59","54.4","33.2","44.6","30.45","327","4.4","9.2","0.00","0.00"
"12:54:57","54.6","34.5","46.6","30.45","301","2.4","6","0.00","0.00"
"12:59:59","54.9","35","47","30.45","222","3.4","5.8","0.00","0.00"
"13:04:49","55.2","36.4","49","30.45","224","2.9","5","0.00","0.00"
"13:09:58","55.5","36.1","47.9","30.45","239","1.9","5","0.00","0.00"
"13:14:58","55.8","34.6","44.7","30.45","250","2.2","5","0.00","0.00"
"13:19:56","55.9","34","43.6","30.44","299","4.7","10.4","0.00","0.00"
"13:24:58","56.4","34.5","43.6","30.44","319","4.9","13","0.00","0.00"
"13:29:59","56.4","33.5","42","30.44","263","3.1","7","0.00","0.00"
"13:34:58","56.5","35.2","44.7","30.44","297","3.2","10.4","0.00","0.00"
"13:39:56","56.4","34","42.8","30.44","310","2.1","10.4","0.00","0.00"
"13:44:58","56.6","35.3","44.8","30.44","350","2.5","5","0.00","0.00"
"13:49:56","56.8","35.3","44.5","30.43","194","2.9","5","0.00","0.00"
"13:54:58","57.1","35.7","44.6","30.43","220","3.1","7","0.00","0.00"
"13:59:56","57.6","36","44.3","30.43","232","3.8","7","0.00","0.00"
"14:04:53","57.7","34.7","41.9","30.43","212","2.7","5","0.00","0.00"
"14:09:59","58.1","36","43.6","30.43","219","1.7","5","0.00","0.00"
"14:14:58","58.1","34.9","41.6","30.43","315","2.4","7","0.00","0.00"
"14:19:56","57.9","35","42.2","30.43","359","2.5","6.9","0.00","0.00"
"14:24:58","57.9","36.3","44.3","30.43","91","1.5","4","0.00","0.00"
"14:29:56","57.9","34.4","41.1","30.43","44","1.3","4","0.00","0.00"
"14:34:58","58.3","33.2","38.7","30.43","318","1.5","4","0.00","0.00"
"14:39:57","58.7","34.8","40.7","30.43","310","4.2","12","0.00","0.00"
"14:44:59","59.3","34.5","39.4","30.43","331","4.1","9.2","0.00","0.00"
"14:49:57","59","33","37.4","30.43","310","2.4","9.2","0.00","0.00"
"14:54:58","59","35.7","41.7","30.43","231","2.6","6","0.00","0.00"
"14:59:56","59.5","35.6","40.9","30.43","233","2.9","5.8","0.00","0.00"
"15:04:53","59.8","36.2","41.4","30.42","274","3","6","0.00","0.00"
"15:09:58","59.9","36.1","41","30.42","212","2.4","5.8","0.00","0.00"
"15:14:57","60.3","35.5","39.5","30.42","276","1.6","4","0.00","0.00"
"15:19:59","60.5","35.7","39.6","30.42","304","3.2","10","0.00","0.00"
"15:24:57","61","37.2","41.3","30.42","244","2.8","10.4","0.00","0.00"
"15:29:31","61.3","35.8","38.6","30.42","266","3.2","5.8","0.00","0.00"
"15:34:58","61.1","34.9","37.5","30.42","284","1.7","5","0.00","0.00"
"15:39:57","61.1","34.5","36.9","30.42","330","3.4","8.1","0.00","0.00"
"15:44:59","60.6","33.2","35.5","30.42","335","1.9","4","0.00","0.00"
"15:49:58","60.7","35.2","38.5","30.42","171","2.5","5","0.00","0.00"
"15:54:59","61","35.8","39","30.42","242","3.3","9.2","0.00","0.00"
"15:59:57","61","34.1","36.4","30.42","339","3.6","8.1","0.00","0.00"
"16:04:50","60.9","33.5","35.7","30.42","318","3.8","8.1","0.00","0.00"
"16:09:56","60.9","33.8","36.1","30.42","314","3.3","7","0.00","0.00"
"16:14:59","60.7","34","36.6","30.42","289","1.1","6.9","0.00","0.00"
"16:19:56","60.9","33.4","35.6","30.41","54","2.8","5","0.00","0.00"
"16:24:59","61.1","34.2","36.5","30.41","316","2.4","5","0.00","0.00"
"16:28:58","61.6","34.9","36.7","30.41","301","2.1","6","0.00","0.00"
"16:34:59","61.7","32.8","33.8","30.40","45","2","6","0.00","0.00"
"16:39:57","61.5","33.9","35.6","30.40","219","1.8","5.8","0.00","0.00"
"16:44:59","61.5","33.1","34.4","30.40","276","3.3","8.1","0.00","0.00"
"16:49:58","61.5","34.7","36.6","30.40","160","3.2","7","0.00","0.00"
"16:54:56","61.7","34.3","35.8","30.40","177","2.5","4","0.00","0.00"
"16:59:58","62","35","36.4","30.40","153","1.9","4","0.00","0.00"
"17:04:59","62.1","35.4","36.9","30.40","117","2.2","5","0.00","0.00"
